294  
ASUS42 KCHS 190227  
RWRCHS  
 
REGIONAL WEATHER ROUNDUP  
NATIONAL WEATHER SERVICE CHARLESTON SC  
1000 PM EDT MON JUN 18 2018  
 
NOTE: "FAIR" INDICATES FEW OR NO CLOUDS BELOW 12,000 FEET WITH NO  
SIGNIFICANT WEATHER AND/OR S TO VISIBILITY
.  
 
NOT ALL STATIONS ARE QUALITY CONTROLLED. USE DATA WITH CAUTION,  
ESPECIALLY DEWPOINT OBSERVATIONS.  
 
SCZ027-030-031-034>040-042>050-190300-   
..SOUTHEAST SOUTH CAROLINA
 
 
 
CITY SKY/WX TMP DP RH WIND PRES REMARKS
 
N CHARLESTON FAIR 79 75 87 SW8 30.04S  
WATERFRONT PRK N/A 81 77 88 SW6 29.89S  
MOUNT PLEASANT FAIR 81 75 83 S7 30.06R  
JOHNS ISLAND FAIR 81 77 89 S7 30.06S  
PINOPOLIS N/A 81 75 83 VRB2 29.98R  
MONCKS CORNER FAIR 75 72 88 SW3 30.05R  
SUMMERVILLE FAIR 77 73 88 CALM 30.06R  
BEAUFORT MCAS FAIR 81 76 84 S6 30.06R  
BEAUFORT ARPT FAIR 79 73 83 S6 30.06R  
HILTON HEAD IS FAIR 81 77 89 S8G15 30.06S  
WALTERBORO FAIR 77 72 83 CALM 30.07R  
ALLENDALE FAIR 82 75 78 S5 30.05S  
   
..SOUTHERN MIDLANDS AND PEE DEE
 
 
 
CITY SKY/WX TMP DP RH WIND PRES REMARKS
 
GEORGETOWN FAIR 77 77 100 SW8 30.06R  
KINGSTREE FAIR 81 77 89 S5 30.04R  
ORANGEBURG FAIR 81 73 76 S8 30.04S  
BARNWELL FAIR 82 75 78 CALM 30.05S  
AIKEN FAIR 81 72 74 SW6 30.09R  
MANNING FAIR 79 70 73 SW8 30.04R  
COLUMBIA FAIR 86 72 62 SW5 30.02R HX 92  
SUMTER FAIR 82 71 69 SW8 30.00R  
FLORENCE FAIR 84 73 69 S6 30.02R HX 90  
MYRTLE BEACH FAIR 82 74 76 SW9 30.03S  
N MYRTLE BEACH FAIR 81 76 84 SW15 30.01S  
 

 
 
GAZ063-065-086>088-099>101-113>116-118-119-134>141-150-190300-   
..SOUTHEAST GEORGIA
 
 
 
CITY SKY/WX TMP DP RH WIND PRES REMARKS
 
SAVANNAH ARPT FAIR 80 74 81 S8 30.06S  
HUNTER AAF FAIR 81 74 80 S5 30.03S  
FORT STEWART FAIR 79 73 82 S3 30.04S  
STATESBORO FAIR 79 73 81 S3 30.07R  
SYLVANIA FAIR 81 76 84 CALM 30.08R  
CLAXTON FAIR 79 75 88 CALM 30.07R  
   
..CSRA, CENTRAL AND FAR SOUTHEAST GEORGIA
 
 
 
CITY SKY/WX TMP DP RH WIND PRES REMARKS
 
THOMSON FAIR 80 74 83 CALM 30.11R  
AUGUSTA-BUSH FAIR 79 75 87 CALM 30.04R  
AUGUSTA-DANIEL FAIR 86 74 67 CALM 30.06R HX 94  
SWAINSBORO FAIR 81 73 78 S7 30.07R  
VIDALIA FAIR 79 70 73 S3 30.07R  
EASTMAN FAIR 80 67 66 CALM 30.08S  
HAZLEHURST MOCLDY 82 71 68 S3 30.06R  
ALMA FAIR 79 73 82 SE3 30.06R  
WAYCROSS FAIR 78 75 90 S3 30.07R  
JESUP FAIR 76 72 86 CALM 30.07R  
BAXLEY FAIR 75 75 100 CALM 30.07R  
BRUNSWICK FAIR 81 73 78 S8 30.07S  
SAINT SIMONS FAIR 82 78 88 S8 30.06S HX 91  
 

 
 
SCZ027-028-034-036>038-045-046-048>050-GAZ119-141-190300-   
..LAKE AND SUPPLEMENTAL COASTAL OBSERVATIONS
 
 
 
STATION/POSITION TIME TEMP WIND PRES WAVE SWELL
 
AIR SEA DIR/SP/G HT/PER HT/PER/DIR  
(UTC) (F) (DEG/KT/KT) (MB) (FT/S) (FT/S/D)  
WINYAH BAY 0130 81 230/ 7 1017.0S  
LAKE MURRAY 0120 89 230/ 7/ 9 1015.6  
ACE BASIN NERRS 0145 81 CALM 1018.0S  
FORT PULASKI 0200 81 80 200/ 7/ 11 1018.3  
SAPELO ISLAND 0200 81 190/ 8 1018.0  
 

 
 
ANZ835-935-AMZ111-154-330-350-352-354-370-450-454-472-190300-   
..C-MAN AND BUOY OBSERVATIONS
 
 
 
STATION/POSITION TIME TEMP WIND PRES WAVE SWELL
 
AIR SEA DIR/SP/G HT/PER HT/PER/DIR  
(UTC) (F) (DEG/KT/KT) (MB) (FT/S) (FT/S/D)  
BUOY 41004 0210 210/ 16/ 17 1017.6  
BUOY 41008 0150 81 84 170/ 14/ 17 1017.6R 2/ 3 2/ 90/ 8  
FOLLY BEACH CMAN 0200 81 210/ 14/ 17 1018.5R  
CAPERS NEARSHORE 0208 82 83 240/ 16/ 19 1017.3R  
FRIPP NEARSHORE 0208 81 83 200/ 12/ 17 1017.5R  
 
 
STATION/POSITION TIME TEMP WIND PRES WAVE SWELL
 
AIR SEA DIR/SP/G HT/PER HT/PER/DIR  
(UTC) (F) (DEG/KT/KT) (MB) (FT/S) (FT/S/D)  
5E ST. MARYS GA 0200 83 N/A 2/ 3  
FRYING PAN BUOY 0210 81 230/ 21/ 25 1016.4  
BUOY 41025 0210 80 78 230/ 14/ 16 1015.3  
CAPE LOOKOUT NC 0200 220/ 11/ 14 1015.5R  
BUOY 41002 0210 80 240/ 8/ 10 1018.5  
BUOY 41010 0210 80 82 110/ 8/ 10 1019.1  
ST AUGUSTINE FL 0200 81 79 160/ 10/ 12 1018.9R  
 

 
 
 
CLICK HERE TO GO TO PREVIOUS BULLETINS.

The Nexlab SC Page
The Nexlab GA Page Main Text Page